Location: *
(43.9900°N, 3.4811°E)
Time: 06:51:09
(UTC+00:00)

Cosmos 1980 Rocket - Pass Details

Date: 25 August 2019
Orbit: 829 x 850 km, 71.0° (Epoch: 16 September)

Event Time Altitude Azimuth Distance (km) Brightness Sun altitude
Rises 21:41:07 0° 328° (NNW) 3,395 6.6 -28.2°
Reaches altitude 10° 21:43:40 10° 322° (NW) 2,459 5.6 -28.5°
Maximum altitude 21:48:56 42° 253° (WSW) 1,177 3.0 -29.1°
Enters shadow 21:49:13 42° 245° (WSW) 1,183 2.9 -29.1°
